owner,sensor,date,latitude,longitude,vertical_datum,mass_concentration_of_oxygen_in_sea_water,qcFlag 
NERRS,ioos:station:NOAA.NERRS:rkblhwq:1,2019-09-01T00:45:00Z,26.0257,-81.7332,1.03,4.5,11111222 
NERRS,ioos:station:NOAA.NERRS:rkblhwq:1,2019-09-01T01:45:00Z,26.0257,-81.7332,0.9,4.4,11111222 
NERRS,ioos:station:NOAA.NERRS:rkblhwq:1,2019-09-01T02:45:00Z,26.0257,-81.7332,0.86,4.0,11111222 
NERRS,ioos:station:NOAA.NERRS:rkblhwq:1,2019-09-01T03:45:00Z,26.0257,-81.7332,0.99,4.6,11111222 
NERRS,ioos:station:NOAA.NERRS:rkblhwq:1,2019-09-01T04:45:00Z,26.0257,-81.7332,1.17,4.6,11111222 
NERRS,ioos:station:NOAA.NERRS:rkblhwq:1,2019-09-01T05:45:00Z,26.0257,-81.7332,1.36,4.7,11111222 
NERRS,ioos:station:NOAA.NERRS:rkblhwq:1,2019-09-01T06:45:00Z,26.0257,-81.7332,1.51,4.7,11111222 
NERRS,ioos:station:NOAA.NERRS:rkblhwq:1,2019-09-01T07:45:00Z,26.0257,-81.7332,1.61,4.6,11111222 
NERRS,ioos:station:NOAA.NERRS:rkblhwq:1,2019-09-01T08:45:00Z,26.0257,-81.7332,1.6,4.0,11111222 
NERRS,ioos:station:NOAA.NERRS:rkblhwq:1,2019-09-01T09:45:00Z,26.0257,-81.7332,1.49,4.4,11111222 
NERRS,ioos:station:NOAA.NERRS:rkblhwq:1,2019-09-01T10:45:00Z,26.0257,-81.7332,1.35,4.3,11111222 
NERRS,ioos:station:NOAA.NERRS:rkblhwq:1,2019-09-01T11:45:00Z,26.0257,-81.7332,1.2,4.3,11111222 
NERRS,ioos:station:NOAA.NERRS:rkblhwq:1,2019-09-01T12:45:00Z,26.0257,-81.7332,1.06,3.9,11111222 
NERRS,ioos:station:NOAA.NERRS:rkblhwq:1,2019-09-01T13:45:00Z,26.0257,-81.7332,0.97,3.8,11111222 
NERRS,ioos:station:NOAA.NERRS:rkblhwq:1,2019-09-01T14:45:00Z,26.0257,-81.7332,1.02,3.9,11111222 
NERRS,ioos:station:NOAA.NERRS:rkblhwq:1,2019-09-01T15:45:00Z,26.0257,-81.7332,1.18,4.6,11111222 
NERRS,ioos:station:NOAA.NERRS:rkblhwq:1,2019-09-01T16:45:00Z,26.0257,-81.7332,1.36,4.9,11111222 
NERRS,ioos:station:NOAA.NERRS:rkblhwq:1,2019-09-01T17:45:00Z,26.0257,-81.7332,1.52,5.1,11111222 
NERRS,ioos:station:NOAA.NERRS:rkblhwq:1,2019-09-02T02:45:00Z,26.0257,-81.7332,0.97,6.9,11111222 
NERRS,ioos:station:NOAA.NERRS:rkblhwq:1,2019-09-02T03:45:00Z,26.0257,-81.7332,0.97,5.7,11111222 
NERRS,ioos:station:NOAA.NERRS:rkblhwq:1,2019-09-02T04:45:00Z,26.0257,-81.7332,1.15,6.1,11111222 
NERRS,ioos:station:NOAA.NERRS:rkblhwq:1,2019-09-02T05:45:00Z,26.0257,-81.7332,1.33,6.0,11111222 
NERRS,ioos:station:NOAA.NERRS:rkblhwq:1,2019-09-02T06:45:00Z,26.0257,-81.7332,1.5,5.9,11111222 
NERRS,ioos:station:NOAA.NERRS:rkblhwq:1,2019-09-02T07:45:00Z,26.0257,-81.7332,1.62,5.8,11111222 
NERRS,ioos:station:NOAA.NERRS:rkblhwq:1,2019-09-02T08:45:00Z,26.0257,-81.7332,1.65,4.6,11111222 
NERRS,ioos:station:NOAA.NERRS:rkblhwq:1,2019-09-02T09:45:00Z,26.0257,-81.7332,1.57,5.4,11111222 
NERRS,ioos:station:NOAA.NERRS:rkblhwq:1,2019-09-02T10:45:00Z,26.0257,-81.7332,1.44,5.2,11111222 
NERRS,ioos:station:NOAA.NERRS:rkblhwq:1,2019-09-02T11:45:00Z,26.0257,-81.7332,1.29,5.1,11111222 
NERRS,ioos:station:NOAA.NERRS:rkblhwq:1,2019-09-02T12:45:00Z,26.0257,-81.7332,1.13,5.0,11111222 
NERRS,ioos:station:NOAA.NERRS:rkblhwq:1,2019-09-02T15:45:00Z,26.0257,-81.7332,0.96,4.6,11111222 
NERRS,ioos:station:NOAA.NERRS:rkblhwq:1,2019-09-02T16:45:00Z,26.0257,-81.7332,1.1,6.4,11111222 
NERRS,ioos:station:NOAA.NERRS:rkblhwq:1,2019-09-02T17:45:00Z,26.0257,-81.7332,1.26,7.1,11111222 
NERRS,ioos:station:NOAA.NERRS:rkblhwq:1,2019-09-02T18:45:00Z,26.0257,-81.7332,1.43,7.2,11111222 
NERRS,ioos:station:NOAA.NERRS:rkblhwq:1,2019-09-02T19:45:00Z,26.0257,-81.7332,1.57,7.5,11111222 
NERRS,ioos:station:NOAA.NERRS:rkblhwq:1,2019-09-02T20:45:00Z,26.0257,-81.7332,1.67,7.4,11111222 
NERRS,ioos:station:NOAA.NERRS:rkblhwq:1,2019-09-02T22:45:00Z,26.0257,-81.7332,1.56,6.9,11111222 
NERRS,ioos:station:NOAA.NERRS:rkblhwq:1,2019-09-02T23:45:00Z,26.0257,-81.7332,1.42,7.1,11111222 
NERRS,ioos:station:NOAA.NERRS:rkblhwq:1,2019-09-03T00:45:00Z,26.0257,-81.7332,1.25,7.1,11111222 
NERRS,ioos:station:NOAA.NERRS:rkblhwq:1,2019-09-03T01:45:00Z,26.0257,-81.7332,1.11,6.6,11111222 
NERRS,ioos:station:NOAA.NERRS:rkblhwq:1,2019-09-03T02:45:00Z,26.0257,-81.7332,0.99,6.8,11111222 
NERRS,ioos:station:NOAA.NERRS:rkblhwq:1,2019-09-03T03:45:00Z,26.0257,-81.7332,0.94,3.1,11111222 
NERRS,ioos:station:NOAA.NERRS:rkblhwq:1,2019-09-03T04:45:00Z,26.0257,-81.7332,1.06,5.7,11111222 
NERRS,ioos:station:NOAA.NERRS:rkblhwq:1,2019-09-03T05:45:00Z,26.0257,-81.7332,1.21,5.8,11111222 
NERRS,ioos:station:NOAA.NERRS:rkblhwq:1,2019-09-03T06:45:00Z,26.0257,-81.7332,1.36,5.7,11111222 
NERRS,ioos:station:NOAA.NERRS:rkblhwq:1,2019-09-03T07:45:00Z,26.0257,-81.7332,1.5,5.6,11111222 
NERRS,ioos:station:NOAA.NERRS:rkblhwq:1,2019-09-03T08:45:00Z,26.0257,-81.7332,1.57,5.1,11111222 
NERRS,ioos:station:NOAA.NERRS:rkblhwq:1,2019-09-03T09:45:00Z,26.0257,-81.7332,1.55,4.2,11111222 
NERRS,ioos:station:NOAA.NERRS:rkblhwq:1,2019-09-03T10:45:00Z,26.0257,-81.7332,1.45,4.6,11111222 
NERRS,ioos:station:NOAA.NERRS:rkblhwq:1,2019-09-03T12:45:00Z,26.0257,-81.7332,1.18,4.9,11111222 
NERRS,ioos:station:NOAA.NERRS:rkblhwq:1,2019-09-03T13:45:00Z,26.0257,-81.7332,1.04,4.2,11111222 
NERRS,ioos:station:NOAA.NERRS:rkblhwq:1,2019-09-03T14:45:00Z,26.0257,-81.7332,0.92,4.6,11111222 
NERRS,ioos:station:NOAA.NERRS:rkblhwq:1,2019-09-03T15:45:00Z,26.0257,-81.7332,0.85,4.5,11111222 
NERRS,ioos:station:NOAA.NERRS:rkblhwq:1,2019-09-03T16:45:00Z,26.0257,-81.7332,0.9,5.4,11111222 
NERRS,ioos:station:NOAA.NERRS:rkblhwq:1,2019-09-03T17:45:00Z,26.0257,-81.7332,1.05,6.9,11111222 
NERRS,ioos:station:NOAA.NERRS:rkblhwq:1,2019-09-03T18:45:00Z,26.0257,-81.7332,1.2,7.2,11111222 
NERRS,ioos:station:NOAA.NERRS:rkblhwq:1,2019-09-03T19:45:00Z,26.0257,-81.7332,1.35,7.6,11111222 
NERRS,ioos:station:NOAA.NERRS:rkblhwq:1,2019-09-03T20:45:00Z,26.0257,-81.7332,1.48,7.6,11111222 
NERRS,ioos:station:NOAA.NERRS:rkblhwq:1,2019-09-03T21:45:00Z,26.0257,-81.7332,1.56,7.2,11111222 
NERRS,ioos:station:NOAA.NERRS:rkblhwq:1,2019-09-03T22:45:00Z,26.0257,-81.7332,1.56,4.9,11111222 
NERRS,ioos:station:NOAA.NERRS:rkblhwq:1,2019-09-03T23:45:00Z,26.0257,-81.7332,1.47,7.2,11111222 
NERRS,ioos:station:NOAA.NERRS:rkblhwq:1,2019-09-04T00:45:00Z,26.0257,-81.7332,1.35,7.1,11111222 
NERRS,ioos:station:NOAA.NERRS:rkblhwq:1,2019-09-04T01:45:00Z,26.0257,-81.7332,1.22,6.3,11111222 
NERRS,ioos:station:NOAA.NERRS:rkblhwq:1,2019-09-04T02:45:00Z,26.0257,-81.7332,1.13,5.7,11111222 
NERRS,ioos:station:NOAA.NERRS:rkblhwq:1,2019-09-04T03:45:00Z,26.0257,-81.7332,1.05,5.6,11111222 
NERRS,ioos:station:NOAA.NERRS:rkblhwq:1,2019-09-04T04:45:00Z,26.0257,-81.7332,1.08,5.4,11111222 
NERRS,ioos:station:NOAA.NERRS:rkblhwq:1,2019-09-04T05:45:00Z,26.0257,-81.7332,1.2,6.3,11111222 
NERRS,ioos:station:NOAA.NERRS:rkblhwq:1,2019-09-04T06:45:00Z,26.0257,-81.7332,1.34,5.8,11111222 
NERRS,ioos:station:NOAA.NERRS:rkblhwq:1,2019-09-04T07:45:00Z,26.0257,-81.7332,1.48,5.8,11111222 
NERRS,ioos:station:NOAA.NERRS:rkblhwq:1,2019-09-04T08:45:00Z,26.0257,-81.7332,1.59,5.6,11111222 
NERRS,ioos:station:NOAA.NERRS:rkblhwq:1,2019-09-04T09:45:00Z,26.0257,-81.7332,1.63,5.0,11111222 
NERRS,ioos:station:NOAA.NERRS:rkblhwq:1,2019-09-04T10:45:00Z,26.0257,-81.7332,1.63,4.1,11111222 
NERRS,ioos:station:NOAA.NERRS:rkblhwq:1,2019-09-04T11:45:00Z,26.0257,-81.7332,1.52,5.0,11111222 
NERRS,ioos:station:NOAA.NERRS:rkblhwq:1,2019-09-04T12:45:00Z,26.0257,-81.7332,1.39,4.7,11111222 
NERRS,ioos:station:NOAA.NERRS:rkblhwq:1,2019-09-04T13:45:00Z,26.0257,-81.7332,1.24,4.8,11111222 
NERRS,ioos:station:NOAA.NERRS:rkblhwq:1,2019-09-04T14:45:00Z,26.0257,-81.7332,1.11,5.0,11111222 
NERRS,ioos:station:NOAA.NERRS:rkblhwq:1,2019-09-04T15:45:00Z,26.0257,-81.7332,0.99,4.9,11111222 
NERRS,ioos:station:NOAA.NERRS:rkblhwq:1,2019-09-04T16:45:00Z,26.0257,-81.7332,0.89,5.2,11111222 
NERRS,ioos:station:NOAA.NERRS:rkblhwq:1,2019-09-04T17:45:00Z,26.0257,-81.7332,0.93,5.1,11111222 
NERRS,ioos:station:NOAA.NERRS:rkblhwq:1,2019-09-04T18:45:00Z,26.0257,-81.7332,1.05,6.9,11111222 
NERRS,ioos:station:NOAA.NERRS:rkblhwq:1,2019-09-04T19:45:00Z,26.0257,-81.7332,1.18,7.3,11111222 
NERRS,ioos:station:NOAA.NERRS:rkblhwq:1,2019-09-04T20:45:00Z,26.0257,-81.7332,1.29,6.9,11111222 
NERRS,ioos:station:NOAA.NERRS:rkblhwq:1,2019-09-04T21:45:00Z,26.0257,-81.7332,1.38,6.9,11111222 
NERRS,ioos:station:NOAA.NERRS:rkblhwq:1,2019-09-04T22:45:00Z,26.0257,-81.7332,1.43,6.5,11111222 
NERRS,ioos:station:NOAA.NERRS:rkblhwq:1,2019-09-04T23:45:00Z,26.0257,-81.7332,1.45,5.9,11111222 
NERRS,ioos:station:NOAA.NERRS:rkblhwq:1,2019-09-05T00:45:00Z,26.0257,-81.7332,1.39,6.8,11111222 
NERRS,ioos:station:NOAA.NERRS:rkblhwq:1,2019-09-05T01:45:00Z,26.0257,-81.7332,1.29,6.0,11111222 
NERRS,ioos:station:NOAA.NERRS:rkblhwq:1,2019-09-05T02:45:00Z,26.0257,-81.7332,1.19,5.5,11111222 
NERRS,ioos:station:NOAA.NERRS:rkblhwq:1,2019-09-05T03:45:00Z,26.0257,-81.7332,1.11,5.4,11111222 
NERRS,ioos:station:NOAA.NERRS:rkblhwq:1,2019-09-05T05:45:00Z,26.0257,-81.7332,1.21,5.7,11111222 
NERRS,ioos:station:NOAA.NERRS:rkblhwq:1,2019-09-05T06:45:00Z,26.0257,-81.7332,1.33,5.6,11111222 
NERRS,ioos:station:NOAA.NERRS:rkblhwq:1,2019-09-05T07:45:00Z,26.0257,-81.7332,1.42,5.1,11111222 
NERRS,ioos:station:NOAA.NERRS:rkblhwq:1,2019-09-05T08:45:00Z,26.0257,-81.7332,1.52,5.1,11111222 
NERRS,ioos:station:NOAA.NERRS:rkblhwq:1,2019-09-05T09:45:00Z,26.0257,-81.7332,1.58,4.9,11111222 
NERRS,ioos:station:NOAA.NERRS:rkblhwq:1,2019-09-05T10:45:00Z,26.0257,-81.7332,1.61,4.8,11111222 
NERRS,ioos:station:NOAA.NERRS:rkblhwq:1,2019-09-05T11:45:00Z,26.0257,-81.7332,1.56,4.5,11111222 
NERRS,ioos:station:NOAA.NERRS:rkblhwq:1,2019-09-05T12:45:00Z,26.0257,-81.7332,1.46,4.1,11111222 
NERRS,ioos:station:NOAA.NERRS:rkblhwq:1,2019-09-05T13:45:00Z,26.0257,-81.7332,1.34,4.1,11111222 
NERRS,ioos:station:NOAA.NERRS:rkblhwq:1,2019-09-05T14:45:00Z,26.0257,-81.7332,1.2,4.2,11111222 
NERRS,ioos:station:NOAA.NERRS:rkblhwq:1,2019-09-05T15:45:00Z,26.0257,-81.7332,1.06,4.2,11111222 
NERRS,ioos:station:NOAA.NERRS:rkblhwq:1,2019-09-05T16:45:00Z,26.0257,-81.7332,0.95,4.7,11111222 
NERRS,ioos:station:NOAA.NERRS:rkblhwq:1,2019-09-05T17:45:00Z,26.0257,-81.7332,0.88,5.3,11111222 
NERRS,ioos:station:NOAA.NERRS:rkblhwq:1,2019-09-05T18:45:00Z,26.0257,-81.7332,0.92,5.4,11111222 
NERRS,ioos:station:NOAA.NERRS:rkblhwq:1,2019-09-05T19:45:00Z,26.0257,-81.7332,1.0,7.3,11111222 
NERRS,ioos:station:NOAA.NERRS:rkblhwq:1,2019-09-05T20:45:00Z,26.0257,-81.7332,1.1,7.0,11111222 
NERRS,ioos:station:NOAA.NERRS:rkblhwq:1,2019-09-05T21:45:00Z,26.0257,-81.7332,1.2,6.8,11111222 
NERRS,ioos:station:NOAA.NERRS:rkblhwq:1,2019-09-05T22:45:00Z,26.0257,-81.7332,1.3,6.7,11111222 
NERRS,ioos:station:NOAA.NERRS:rkblhwq:1,2019-09-05T23:45:00Z,26.0257,-81.7332,1.37,6.5,11111222 
NERRS,ioos:station:NOAA.NERRS:rkblhwq:1,2019-09-06T00:45:00Z,26.0257,-81.7332,1.42,6.6,11111222 
NERRS,ioos:station:NOAA.NERRS:rkblhwq:1,2019-09-06T01:45:00Z,26.0257,-81.7332,1.38,5.8,11111222 
NERRS,ioos:station:NOAA.NERRS:rkblhwq:1,2019-09-06T02:45:00Z,26.0257,-81.7332,1.32,5.4,11111222 
NERRS,ioos:station:NOAA.NERRS:rkblhwq:1,2019-09-06T03:45:00Z,26.0257,-81.7332,1.24,5.0,11111222 
NERRS,ioos:station:NOAA.NERRS:rkblhwq:1,2019-09-06T04:45:00Z,26.0257,-81.7332,1.18,5.9,11111222 
NERRS,ioos:station:NOAA.NERRS:rkblhwq:1,2019-09-06T06:45:00Z,26.0257,-81.7332,1.27,5.8,11111222 
NERRS,ioos:station:NOAA.NERRS:rkblhwq:1,2019-09-06T07:45:00Z,26.0257,-81.7332,1.36,5.6,11111222 
NERRS,ioos:station:NOAA.NERRS:rkblhwq:1,2019-09-06T08:45:00Z,26.0257,-81.7332,1.44,5.0,11111222 
NERRS,ioos:station:NOAA.NERRS:rkblhwq:1,2019-09-06T09:45:00Z,26.0257,-81.7332,1.53,5.3,11111222 
NERRS,ioos:station:NOAA.NERRS:rkblhwq:1,2019-09-06T10:45:00Z,26.0257,-81.7332,1.59,4.8,11111222 
NERRS,ioos:station:NOAA.NERRS:rkblhwq:1,2019-09-06T11:45:00Z,26.0257,-81.7332,1.61,4.7,11111222 
NERRS,ioos:station:NOAA.NERRS:rkblhwq:1,2019-09-06T12:45:00Z,26.0257,-81.7332,1.55,4.5,11111222 
NERRS,ioos:station:NOAA.NERRS:rkblhwq:1,2019-09-06T13:45:00Z,26.0257,-81.7332,1.46,4.5,11111222 
NERRS,ioos:station:NOAA.NERRS:rkblhwq:1,2019-09-06T14:45:00Z,26.0257,-81.7332,1.33,3.9,11111222 
NERRS,ioos:station:NOAA.NERRS:rkblhwq:1,2019-09-06T15:45:00Z,26.0257,-81.7332,1.2,4.5,11111222 
NERRS,ioos:station:NOAA.NERRS:rkblhwq:1,2019-09-06T16:45:00Z,26.0257,-81.7332,1.07,5.0,11111222 
NERRS,ioos:station:NOAA.NERRS:rkblhwq:1,2019-09-06T17:45:00Z,26.0257,-81.7332,0.96,5.4,11111222 
NERRS,ioos:station:NOAA.NERRS:rkblhwq:1,2019-09-06T18:45:00Z,26.0257,-81.7332,0.91,5.9,11111222 
NERRS,ioos:station:NOAA.NERRS:rkblhwq:1,2019-09-06T19:45:00Z,26.0257,-81.7332,0.94,5.0,11111222 
NERRS,ioos:station:NOAA.NERRS:rkblhwq:1,2019-09-06T20:45:00Z,26.0257,-81.7332,1.01,7.0,11111222 
NERRS,ioos:station:NOAA.NERRS:rkblhwq:1,2019-09-06T21:45:00Z,26.0257,-81.7332,1.11,7.0,11111222 
NERRS,ioos:station:NOAA.NERRS:rkblhwq:1,2019-09-06T22:45:00Z,26.0257,-81.7332,1.21,6.6,11111222 
NERRS,ioos:station:NOAA.NERRS:rkblhwq:1,2019-09-06T23:45:00Z,26.0257,-81.7332,1.32,6.2,11111222 
NERRS,ioos:station:NOAA.NERRS:rkblhwq:1,2019-09-07T00:45:00Z,26.0257,-81.7332,1.41,6.2,11111222 
NERRS,ioos:station:NOAA.NERRS:rkblhwq:1,2019-09-07T01:45:00Z,26.0257,-81.7332,1.48,5.9,11111222 
NERRS,ioos:station:NOAA.NERRS:rkblhwq:1,2019-09-07T02:45:00Z,26.0257,-81.7332,1.49,5.5,11111222 
NERRS,ioos:station:NOAA.NERRS:rkblhwq:1,2019-09-07T03:45:00Z,26.0257,-81.7332,1.44,5.3,11111222 
NERRS,ioos:station:NOAA.NERRS:rkblhwq:1,2019-09-07T04:45:00Z,26.0257,-81.7332,1.38,4.8,11111222 
NERRS,ioos:station:NOAA.NERRS:rkblhwq:1,2019-09-07T05:45:00Z,26.0257,-81.7332,1.35,4.7,11111222 
NERRS,ioos:station:NOAA.NERRS:rkblhwq:1,2019-09-07T06:45:00Z,26.0257,-81.7332,1.33,3.7,11111222 
NERRS,ioos:station:NOAA.NERRS:rkblhwq:1,2019-09-07T07:45:00Z,26.0257,-81.7332,1.34,3.9,11111222 
NERRS,ioos:station:NOAA.NERRS:rkblhwq:1,2019-09-07T08:45:00Z,26.0257,-81.7332,1.41,4.8,11111222 
NERRS,ioos:station:NOAA.NERRS:rkblhwq:1,2019-09-07T09:45:00Z,26.0257,-81.7332,1.51,5.5,11111222 
NERRS,ioos:station:NOAA.NERRS:rkblhwq:1,2019-09-07T10:45:00Z,26.0257,-81.7332,1.57,4.6,11111222 
NERRS,ioos:station:NOAA.NERRS:rkblhwq:1,2019-09-07T11:45:00Z,26.0257,-81.7332,1.61,4.0,11111222 
NERRS,ioos:station:NOAA.NERRS:rkblhwq:1,2019-09-07T12:45:00Z,26.0257,-81.7332,1.61,2.7,11111222 
NERRS,ioos:station:NOAA.NERRS:rkblhwq:1,2019-09-07T13:45:00Z,26.0257,-81.7332,1.59,3.2,11111222 
NERRS,ioos:station:NOAA.NERRS:rkblhwq:1,2019-09-07T14:45:00Z,26.0257,-81.7332,1.52,3.4,11111222 
NERRS,ioos:station:NOAA.NERRS:rkblhwq:1,2019-09-07T15:45:00Z,26.0257,-81.7332,1.41,4.6,11111222 
NERRS,ioos:station:NOAA.NERRS:rkblhwq:1,2019-09-07T16:45:00Z,26.0257,-81.7332,1.27,3.7,11111222 
NERRS,ioos:station:NOAA.NERRS:rkblhwq:1,2019-09-07T17:45:00Z,26.0257,-81.7332,1.14,4.5,11111222 
NERRS,ioos:station:NOAA.NERRS:rkblhwq:1,2019-09-07T18:45:00Z,26.0257,-81.7332,1.02,5.0,11111222 
NERRS,ioos:station:NOAA.NERRS:rkblhwq:1,2019-09-07T19:45:00Z,26.0257,-81.7332,0.92,5.3,11111222 
NERRS,ioos:station:NOAA.NERRS:rkblhwq:1,2019-09-07T20:45:00Z,26.0257,-81.7332,0.9,5.0,11111222 
NERRS,ioos:station:NOAA.NERRS:rkblhwq:1,2019-09-07T21:45:00Z,26.0257,-81.7332,0.98,6.1,11111222 
NERRS,ioos:station:NOAA.NERRS:rkblhwq:1,2019-09-07T22:45:00Z,26.0257,-81.7332,1.08,6.1,11111222 
NERRS,ioos:station:NOAA.NERRS:rkblhwq:1,2019-09-08T00:45:00Z,26.0257,-81.7332,1.28,5.6,11111222 
NERRS,ioos:station:NOAA.NERRS:rkblhwq:1,2019-09-08T01:45:00Z,26.0257,-81.7332,1.37,5.5,11111222 
NERRS,ioos:station:NOAA.NERRS:rkblhwq:1,2019-09-08T02:45:00Z,26.0257,-81.7332,1.46,5.5,11111222 
NERRS,ioos:station:NOAA.NERRS:rkblhwq:1,2019-09-08T03:45:00Z,26.0257,-81.7332,1.52,5.0,11111222 
NERRS,ioos:station:NOAA.NERRS:rkblhwq:1,2019-09-08T05:45:00Z,26.0257,-81.7332,1.44,4.7,11111222 
NERRS,ioos:station:NOAA.NERRS:rkblhwq:1,2019-09-08T06:45:00Z,26.0257,-81.7332,1.37,4.0,11111222 
NERRS,ioos:station:NOAA.NERRS:rkblhwq:1,2019-09-08T07:45:00Z,26.0257,-81.7332,1.32,4.3,11111222 
NERRS,ioos:station:NOAA.NERRS:rkblhwq:1,2019-09-08T08:45:00Z,26.0257,-81.7332,1.32,3.8,11111222 
NERRS,ioos:station:NOAA.NERRS:rkblhwq:1,2019-09-08T09:45:00Z,26.0257,-81.7332,1.39,4.1,11111222 
NERRS,ioos:station:NOAA.NERRS:rkblhwq:1,2019-09-08T10:45:00Z,26.0257,-81.7332,1.49,3.6,11111222 
NERRS,ioos:station:NOAA.NERRS:rkblhwq:1,2019-09-08T11:45:00Z,26.0257,-81.7332,1.55,3.8,11111222 
NERRS,ioos:station:NOAA.NERRS:rkblhwq:1,2019-09-08T12:45:00Z,26.0257,-81.7332,1.6,3.4,11111222 
NERRS,ioos:station:NOAA.NERRS:rkblhwq:1,2019-09-08T13:45:00Z,26.0257,-81.7332,1.65,3.7,11111222 
NERRS,ioos:station:NOAA.NERRS:rkblhwq:1,2019-09-08T14:45:00Z,26.0257,-81.7332,1.63,2.9,11111222 
NERRS,ioos:station:NOAA.NERRS:rkblhwq:1,2019-09-08T15:45:00Z,26.0257,-81.7332,1.56,3.5,11111222 
NERRS,ioos:station:NOAA.NERRS:rkblhwq:1,2019-09-08T16:45:00Z,26.0257,-81.7332,1.46,3.6,11111222 
NERRS,ioos:station:NOAA.NERRS:rkblhwq:1,2019-09-08T17:45:00Z,26.0257,-81.7332,1.34,3.8,11111222 
NERRS,ioos:station:NOAA.NERRS:rkblhwq:1,2019-09-08T18:45:00Z,26.0257,-81.7332,1.21,4.3,11111222 
NERRS,ioos:station:NOAA.NERRS:rkblhwq:1,2019-09-08T19:45:00Z,26.0257,-81.7332,1.08,5.0,11111222 
NERRS,ioos:station:NOAA.NERRS:rkblhwq:1,2019-09-08T20:45:00Z,26.0257,-81.7332,0.97,4.8,11111222 
NERRS,ioos:station:NOAA.NERRS:rkblhwq:1,2019-09-08T21:45:00Z,26.0257,-81.7332,0.92,4.7,11111222 
NERRS,ioos:station:NOAA.NERRS:rkblhwq:1,2019-09-08T22:45:00Z,26.0257,-81.7332,0.98,5.3,11111222 
NERRS,ioos:station:NOAA.NERRS:rkblhwq:1,2019-09-08T23:45:00Z,26.0257,-81.7332,1.11,5.7,11111222 
NERRS,ioos:station:NOAA.NERRS:rkblhwq:1,2019-09-09T01:45:00Z,26.0257,-81.7332,1.35,5.1,11111222 
NERRS,ioos:station:NOAA.NERRS:rkblhwq:1,2019-09-09T02:45:00Z,26.0257,-81.7332,1.46,5.1,11111222 
NERRS,ioos:station:NOAA.NERRS:rkblhwq:1,2019-09-09T03:45:00Z,26.0257,-81.7332,1.54,5.0,11111222 
NERRS,ioos:station:NOAA.NERRS:rkblhwq:1,2019-09-09T04:45:00Z,26.0257,-81.7332,1.57,4.4,11111222 
NERRS,ioos:station:NOAA.NERRS:rkblhwq:1,2019-09-09T05:45:00Z,26.0257,-81.7332,1.5,4.2,11111222 
NERRS,ioos:station:NOAA.NERRS:rkblhwq:1,2019-09-09T06:45:00Z,26.0257,-81.7332,1.42,3.9,11111222 
NERRS,ioos:station:NOAA.NERRS:rkblhwq:1,2019-09-09T07:45:00Z,26.0257,-81.7332,1.34,3.8,11111222 
NERRS,ioos:station:NOAA.NERRS:rkblhwq:1,2019-09-09T08:45:00Z,26.0257,-81.7332,1.26,3.9,11111222 
NERRS,ioos:station:NOAA.NERRS:rkblhwq:1,2019-09-09T09:45:00Z,26.0257,-81.7332,1.24,3.3,11111222 
NERRS,ioos:station:NOAA.NERRS:rkblhwq:1,2019-09-09T10:45:00Z,26.0257,-81.7332,1.32,3.6,11111222 
NERRS,ioos:station:NOAA.NERRS:rkblhwq:1,2019-09-09T11:45:00Z,26.0257,-81.7332,1.42,4.2,11111222 
NERRS,ioos:station:NOAA.NERRS:rkblhwq:1,2019-09-09T12:45:00Z,26.0257,-81.7332,1.51,3.7,11111222 
NERRS,ioos:station:NOAA.NERRS:rkblhwq:1,2019-09-09T13:45:00Z,26.0257,-81.7332,1.58,3.5,11111222 
NERRS,ioos:station:NOAA.NERRS:rkblhwq:1,2019-09-09T14:45:00Z,26.0257,-81.7332,1.65,3.6,11111222 
NERRS,ioos:station:NOAA.NERRS:rkblhwq:1,2019-09-09T15:45:00Z,26.0257,-81.7332,1.66,3.2,11111222 
NERRS,ioos:station:NOAA.NERRS:rkblhwq:1,2019-09-09T16:45:00Z,26.0257,-81.7332,1.58,3.5,11111222 
NERRS,ioos:station:NOAA.NERRS:rkblhwq:1,2019-09-09T17:45:00Z,26.0257,-81.7332,1.46,3.8,11111222 
NERRS,ioos:station:NOAA.NERRS:rkblhwq:1,2019-09-09T20:45:00Z,26.0257,-81.7332,1.08,4.5,11111222 
NERRS,ioos:station:NOAA.NERRS:rkblhwq:1,2019-09-09T22:45:00Z,26.0257,-81.7332,0.94,5.3,11111222 
NERRS,ioos:station:NOAA.NERRS:rkblhwq:1,2019-09-09T23:45:00Z,26.0257,-81.7332,1.0,5.3,11111222 
NERRS,ioos:station:NOAA.NERRS:rkblhwq:1,2019-09-10T00:45:00Z,26.0257,-81.7332,1.13,5.3,11111222 
NERRS,ioos:station:NOAA.NERRS:rkblhwq:1,2019-09-10T01:45:00Z,26.0257,-81.7332,1.25,4.8,11111222 
NERRS,ioos:station:NOAA.NERRS:rkblhwq:1,2019-09-10T02:45:00Z,26.0257,-81.7332,1.39,4.8,11111222 
NERRS,ioos:station:NOAA.NERRS:rkblhwq:1,2019-09-10T03:45:00Z,26.0257,-81.7332,1.5,4.7,11111222 
NERRS,ioos:station:NOAA.NERRS:rkblhwq:1,2019-09-10T04:45:00Z,26.0257,-81.7332,1.57,4.6,11111222 
NERRS,ioos:station:NOAA.NERRS:rkblhwq:1,2019-09-10T05:45:00Z,26.0257,-81.7332,1.54,4.3,11111222 
NERRS,ioos:station:NOAA.NERRS:rkblhwq:1,2019-09-10T06:45:00Z,26.0257,-81.7332,1.45,4.1,11111222 
NERRS,ioos:station:NOAA.NERRS:rkblhwq:1,2019-09-10T07:45:00Z,26.0257,-81.7332,1.35,4.2,11111222 
NERRS,ioos:station:NOAA.NERRS:rkblhwq:1,2019-09-10T08:45:00Z,26.0257,-81.7332,1.29,4.0,11111222 
NERRS,ioos:station:NOAA.NERRS:rkblhwq:1,2019-09-10T09:45:00Z,26.0257,-81.7332,1.26,4.0,11111222 
NERRS,ioos:station:NOAA.NERRS:rkblhwq:1,2019-09-10T10:45:00Z,26.0257,-81.7332,1.25,3.0,11111222 
NERRS,ioos:station:NOAA.NERRS:rkblhwq:1,2019-09-10T11:45:00Z,26.0257,-81.7332,1.31,3.2,11111222 
NERRS,ioos:station:NOAA.NERRS:rkblhwq:1,2019-09-10T12:45:00Z,26.0257,-81.7332,1.44,4.0,11111222 
NERRS,ioos:station:NOAA.NERRS:rkblhwq:1,2019-09-10T13:45:00Z,26.0257,-81.7332,1.54,3.4,11111222 
NERRS,ioos:station:NOAA.NERRS:rkblhwq:1,2019-09-10T14:45:00Z,26.0257,-81.7332,1.61,3.5,11111222 
NERRS,ioos:station:NOAA.NERRS:rkblhwq:1,2019-09-10T15:45:00Z,26.0257,-81.7332,1.65,3.8,11111222 
NERRS,ioos:station:NOAA.NERRS:rkblhwq:1,2019-09-10T16:45:00Z,26.0257,-81.7332,1.65,2.9,11111222 
NERRS,ioos:station:NOAA.NERRS:rkblhwq:1,2019-09-10T17:45:00Z,26.0257,-81.7332,1.57,4.7,11111222 
NERRS,ioos:station:NOAA.NERRS:rkblhwq:1,2019-09-10T18:45:00Z,26.0257,-81.7332,1.43,5.6,11111222 
NERRS,ioos:station:NOAA.NERRS:rkblhwq:1,2019-09-10T19:45:00Z,26.0257,-81.7332,1.28,5.0,11111222 
NERRS,ioos:station:NOAA.NERRS:rkblhwq:1,2019-09-10T20:45:00Z,26.0257,-81.7332,1.13,5.0,11111222 
NERRS,ioos:station:NOAA.NERRS:rkblhwq:1,2019-09-10T21:45:00Z,26.0257,-81.7332,1.0,5.2,11111222 
NERRS,ioos:station:NOAA.NERRS:rkblhwq:1,2019-09-10T22:45:00Z,26.0257,-81.7332,0.9,5.4,11111222 
NERRS,ioos:station:NOAA.NERRS:rkblhwq:1,2019-09-11T00:45:00Z,26.0257,-81.7332,0.94,5.1,11111222 
NERRS,ioos:station:NOAA.NERRS:rkblhwq:1,2019-09-11T01:45:00Z,26.0257,-81.7332,1.06,5.1,11111222 
NERRS,ioos:station:NOAA.NERRS:rkblhwq:1,2019-09-11T02:45:00Z,26.0257,-81.7332,1.21,5.0,11111222 
NERRS,ioos:station:NOAA.NERRS:rkblhwq:1,2019-09-11T03:45:00Z,26.0257,-81.7332,1.36,4.8,11111222 
NERRS,ioos:station:NOAA.NERRS:rkblhwq:1,2019-09-11T04:45:00Z,26.0257,-81.7332,1.45,4.7,11111222 
NERRS,ioos:station:NOAA.NERRS:rkblhwq:1,2019-09-11T05:45:00Z,26.0257,-81.7332,1.47,3.9,11111222 
NERRS,ioos:station:NOAA.NERRS:rkblhwq:1,2019-09-11T06:45:00Z,26.0257,-81.7332,1.39,4.5,11111222 
NERRS,ioos:station:NOAA.NERRS:rkblhwq:1,2019-09-11T07:45:00Z,26.0257,-81.7332,1.27,4.1,11111222 
NERRS,ioos:station:NOAA.NERRS:rkblhwq:1,2019-09-11T08:45:00Z,26.0257,-81.7332,1.16,3.8,11111222 
NERRS,ioos:station:NOAA.NERRS:rkblhwq:1,2019-09-11T09:45:00Z,26.0257,-81.7332,1.08,3.4,11111222 
NERRS,ioos:station:NOAA.NERRS:rkblhwq:1,2019-09-11T10:45:00Z,26.0257,-81.7332,1.08,3.5,11111222 
NERRS,ioos:station:NOAA.NERRS:rkblhwq:1,2019-09-11T11:45:00Z,26.0257,-81.7332,1.16,3.6,11111222 
NERRS,ioos:station:NOAA.NERRS:rkblhwq:1,2019-09-11T12:45:00Z,26.0257,-81.7332,1.28,4.0,11111222 
NERRS,ioos:station:NOAA.NERRS:rkblhwq:1,2019-09-11T13:45:00Z,26.0257,-81.7332,1.39,3.9,11111222 
NERRS,ioos:station:NOAA.NERRS:rkblhwq:1,2019-09-11T14:45:00Z,26.0257,-81.7332,1.5,3.9,11111222 
NERRS,ioos:station:NOAA.NERRS:rkblhwq:1,2019-09-11T15:45:00Z,26.0257,-81.7332,1.59,4.1,11111222 
NERRS,ioos:station:NOAA.NERRS:rkblhwq:1,2019-09-11T16:45:00Z,26.0257,-81.7332,1.63,4.1,11111222 
NERRS,ioos:station:NOAA.NERRS:rkblhwq:1,2019-09-11T17:45:00Z,26.0257,-81.7332,1.55,5.1,11111222 
NERRS,ioos:station:NOAA.NERRS:rkblhwq:1,2019-09-11T19:45:00Z,26.0257,-81.7332,1.28,5.6,11111222 
NERRS,ioos:station:NOAA.NERRS:rkblhwq:1,2019-09-11T20:45:00Z,26.0257,-81.7332,1.14,5.8,11111222 
NERRS,ioos:station:NOAA.NERRS:rkblhwq:1,2019-09-11T21:45:00Z,26.0257,-81.7332,1.0,5.9,11111222 
NERRS,ioos:station:NOAA.NERRS:rkblhwq:1,2019-09-11T22:45:00Z,26.0257,-81.7332,0.88,5.5,11111222 
NERRS,ioos:station:NOAA.NERRS:rkblhwq:1,2019-09-11T23:45:00Z,26.0257,-81.7332,0.79,5.2,11111222 
NERRS,ioos:station:NOAA.NERRS:rkblhwq:1,2019-09-12T00:45:00Z,26.0257,-81.7332,0.81,5.2,11111222 
NERRS,ioos:station:NOAA.NERRS:rkblhwq:1,2019-09-12T01:45:00Z,26.0257,-81.7332,0.94,5.2,11111222 
NERRS,ioos:station:NOAA.NERRS:rkblhwq:1,2019-09-12T02:45:00Z,26.0257,-81.7332,1.07,4.9,11111222 
NERRS,ioos:station:NOAA.NERRS:rkblhwq:1,2019-09-12T03:45:00Z,26.0257,-81.7332,1.23,5.0,11111222 